STARLINK-4763, 53805

Orbit data source: Space-Track

STARLINK-4763, 53805 is a payload satellite owned by SpaceX/Seattle (US) in LEO that was launched on Sun, 11 Sep 2022 UTC via an FALCON 9 launch vehicle from the Air Force Eastern Test Range (AFETR). Payload-class satellites include a variety of spacecraft equipped with specific instruments for various scientific and technological missions. These include communications satellites like Starlink; space stations such as the ISS; scientific satellites like the Hubble; Earth observation satellites from companies like Planet Labs, Umbra, and HawkEye 360; GPS; miniature CubeSats for education and research; and military/defense satellites.

Loading next visibility...
Identifier
53805, 2022-111AJ
Orbit
LEO
Country
Flag of USUS
Related business
Manufacturer
SpaceX/Seattle
Mission
Operational Commercial Communications
Bus & Motor
STARLINK, Unknown motor
Mass
305 kg wet, ~290 kg dry
Launch date (UTC)
2022-09-11 (3 years ago)
Launch vehicle
FALCON 9
Launch site
Air Force Eastern Test Range (AFETR)
Object type
Payload
Rocket body
Debris
Shape & HBR
Box + 1 Pan, 10.1 m
Radar Cross Section
13.562 m², Large (>1 m²)

Expand to show TLE details & history
Last TLE update: 9 hours ago

TLE from 9 hours ago
0 STARLINK-4763
1 53805U 22111AJ  26035.42910209  .00000667  00000-0  59999-4 0  9995
2 53805  53.2180  38.5642 0001802  96.7364 263.3833 15.08844445189005
Epoch: 2026-02-04T10:17Z
TLE epoch observation values (Epoch: 2026-02-04T10:17:54.420Z)
Latitude
-0.00005°
Longitude
109.4916°
Altitude
540.771 km
Speed
7.593 km/s
True Right ascension
02h 34m 15s
True Declination
0° 00' 00"
Sunlit
Object was in daylight at epoch
Visualization orbit readout
Latitude
Unknown
Longitude
Unknown
Altitude
Unknown
Speed
Unknown
Apparent Right ascension
Unknown
Apparent Declination
Unknown
Sunlit
N/A
Visualization observer readout
Local Sidereal Time
21:39:42
Azimuth
Unknown
Elevation
Unknown
Doppler factor
Unknown
Orbital elements
Apogee altitude
541.221 km
Perigee altitude
538.728 km
Semi-major axis
6,918.112 km
Eccentricity
0.00018
Inclination
53.218°
RAAN
38.5642°
Arg. of periapsis
96.7364°
True anomaly
263.36279°
Mean anomaly
263.3833°
Eccentric anomaly
263.37304°
Mean motion
3.77191 °/min
Orbital period
95.44 mins
BSTAR
0.000059999
Loading maneuver chart data...
Computing Atmospheric mass density...
Loading historical data...
Loading historical data...
Loading historical data...
Loading historical data...
Loading historical data...
Loading historical data...
Loading historical data...

Documentation

Showing up to 5 results
|